Theta_e
342 343 344 344 344 345 344 343 342 341 340 340 340 340 340 340 340 341 341 337 334 335 334 334 334 334 334 333 334 334 333 333 334 333 334 334 334 334 334 335 335 334 334 334 334 333 331 328 326 326 326 326 325 325 325 325 324 325 325 324 324 324 325 326 326 326 325 326 328 328 328 325 318 312
342 342 342 343 343 344 344 344 344 343 341 341 340 340 340 340 339 340 340 335 332 334 334 334 334 333 333 333 333 333 332 333 333 333 333 333 333 334 334 334 334 334 334 334 334 333 333 332 329 327 326 325 325 325 325 326 326 326 327 327 327 326 326 327 327 326 325 326 328 329 328 326 319 312
340 341 341 341 341 342 343 344 344 344 343 342 342 341 340 339 338 337 337 335 331 332 333 333 334 333 333 334 334 333 333 333 333 333 332 332 332 332 332 333 333 333 334 333 333 334 333 333 331 329 327 326 325 324 325 325 325 326 326 327 327 328 327 327 327 326 325 326 328 329 329 327 322 314
337 338 339 339 339 340 341 342 342 343 343 343 343 343 341 340 338 336 335 334 331 330 330 330 331 331 332 333 333 333 333 332 333 333 332 331 331 330 329 330 330 331 332 333 333 333 333 333 332 330 329 327 325 325 325 324 325 325 325 326 327 327 327 327 327 326 325 326 328 329 329 328 324 316
336 337 337 338 338 338 339 339 340 341 341 342 342 343 342 342 340 338 337 335 333 332 331 331 330 330 330 330 330 331 331 331 332 332 332 331 330 330 329 328 328 329 329 330 331 332 333 333 333 332 330 328 327 326 325 325 325 325 325 326 326 326 326 326 326 326 326 326 329 330 330 329 325 318
337 337 337 337 337 337 337 337 338 338 339 340 341 341 342 342 342 342 341 339 338 337 334 334 334 333 332 332 331 331 331 331 331 331 330 330 330 329 329 328 328 328 328 328 328 329 330 332 332 332 332 330 329 327 326 326 325 325 325 326 326 326 326 326 327 326 326 327 329 330 331 330 326 320
336 336 335 335 335 335 335 335 336 337 337 338 339 339 340 341 341 342 342 342 342 341 339 338 337 337 336 336 335 334 334 334 333 333 332 331 331 331 330 330 329 327 327 327 327 327 327 328 330 331 331 331 331 330 329 327 326 326 326 326 326 326 326 327 327 327 327 328 330 331 331 331 327 322
334 334 333 333 333 333 333 333 333 334 335 336 336 337 338 338 339 340 340 341 341 342 341 339 338 339 339 338 337 337 337 337 337 337 336 336 335 335 335 335 333 332 331 331 331 330 328 327 327 327 328 330 330 331 330 330 328 327 326 326 326 327 327 327 327 328 328 329 331 331 332 331 329 325
333 333 333 333 333 333 332 331 332 332 333 333 334 334 335 335 336 337 337 338 338 339 339 338 337 337 337 337 336 336 336 337 337 336 337 337 337 337 337 338 337 336 337 337 337 337 335 334 331 329 328 327 328 329 330 331 331 330 328 327 327 327 327 327 328 329 329 330 331 331 332 332 330 327
332 332 332 332 332 332 331 331 331 331 332 332 332 333 333 334 334 335 336 336 336 336 336 336 335 335 335 335 334 334 335 335 336 335 335 334 334 335 336 337 336 336 336 337 338 338 338 338 337 336 334 331 328 327 328 329 331 331 331 329 328 327 327 328 328 328 329 330 331 331 332 333 332 329
331 331 331 331 331 331 331 331 332 332 333 333 333 333 333 334 335 336 336 336 337 337 337 337 335 335 335 335 335 334 335 337 337 337 337 337 337 337 338 339 339 340 340 339 338 338 338 337 338 339 339 338 336 333 329 328 329 331 332 331 330 328 327 328 328 328 329 330 330 331 332 333 333 330
331 330 330 331 331 331 331 331 331 333 333 334 333 333 334 336 337 337 337 339 340 340 341 341 339 338 337 336 336 337 338 339 340 341 343 343 343 343 344 345 346 346 345 344 343 343 341 338 338 339 340 340 341 340 337 333 329 329 330 331 331 331 329 328 328 328 329 330 330 331 332 333 333 332
330 330 330 330 330 331 330 331 331 332 333 334 334 334 336 338 338 339 340 341 343 344 345 346 346 345 343 341 341 343 344 344 345 346 348 349 349 350 351 351 350 349 349 348 348 348 347 345 343 344 345 344 343 343 342 341 336 332 329 329 330 331 331 330 329 328 328 329 330 330 332 333 333 333
329 330 330 330 330 330 330 331 331 332 332 334 335 336 338 340 341 342 343 344 345 346 348 349 350 350 349 348 347 347 348 349 350 351 352 353 353 354 354 355 354 353 353 353 352 352 351 351 350 350 350 349 348 347 346 345 343 340 336 332 330 330 332 332 331 329 328 329 329 330 331 333 334 333
329 329 329 329 330 330 330 331 331 332 333 334 335 338 340 342 344 345 346 347 348 348 349 350 352 353 352 351 351 351 352 353 354 354 354 355 355 355 356 356 355 355 355 355 355 354 353 353 352 352 352 351 350 350 348 347 347 345 343 339 334 331 332 333 333 331 329 328 329 330 331 333 334 334
329 329 329 330 330 330 331 331 332 332 333 335 337 339 341 343 345 346 348 349 349 350 351 352 353 354 354 354 354 354 355 355 355 355 355 355 356 356 356 356 355 355 355 354 354 354 354 353 354 353 353 353 353 352 351 350 350 349 346 344 340 335 332 333 335 334 331 329 329 329 331 333 334 334
330 330 330 331 331 331 331 332 332 333 334 336 339 341 343 345 346 347 349 349 350 351 352 352 353 354 355 355 355 356 356 356 356 356 356 356 356 356 356 356 355 355 355 354 353 354 354 354 354 354 354 354 354 353 352 352 352 350 347 346 344 341 335 333 334 335 333 331 329 329 331 333 334 334
330 331 331 332 332 332 332 332 333 334 336 339 342 344 345 346 347 349 350 351 351 352 353 354 354 354 355 355 356 356 357 357 357 357 357 357 356 356 356 356 355 355 355 355 353 353 355 355 354 354 354 354 354 353 352 353 352 350 347 345 345 345 342 337 335 335 335 333 330 330 330 333 334 334
331 332 333 333 333 333 333 334 335 336 339 342 345 347 348 349 350 351 351 352 353 354 355 355 355 356 356 356 357 357 357 358 358 357 357 357 356 356 357 356 356 356 355 355 353 352 354 355 354 354 354 354 354 353 353 354 353 351 348 345 344 345 345 342 337 335 335 335 332 330 331 333 334 334
333 333 334 335 334 335 336 336 338 340 342 345 347 349 350 351 352 354 354 354 354 355 356 356 357 357 357 357 358 358 358 358 358 358 358 357 357 357 356 356 357 357 356 356 354 352 354 355 354 354 355 354 354 354 353 353 353 352 350 348 346 344 344 344 341 336 335 335 334 332 331 332 334 334
334 334 335 336 336 337 338 339 341 344 346 348 349 351 353 353 354 356 356 356 355 356 356 356 357 358 358 358 358 358 358 358 359 359 358 358 359 358 356 357 358 357 356 355 354 354 355 354 354 354 353 353 353 352 351 351 351 351 351 350 348 346 344 344 343 339 336 335 335 334 332 332 334 335
335 335 336 337 339 340 341 343 345 348 350 351 351 353 354 355 356 356 357 356 357 358 358 358 358 358 358 358 358 359 359 359 359 359 359 358 359 359 358 358 357 356 351 344 348 354 354 352 352 352 351 350 350 350 350 350 350 350 350 350 349 349 348 345 343 341 337 335 335 335 334 333 334 335
337 338 338 340 343 345 346 348 350 351 353 353 354 355 356 356 356 357 357 358 358 359 360 359 359 359 359 359 359 358 358 358 358 358 357 356 356 356 354 352 352 353 346 337 343 350 349 347 347 348 349 350 349 348 348 348 347 347 348 349 349 348 349 347 344 342 339 336 335 335 335 335 335 335
344 344 345 347 349 350 351 352 353 354 355 355 356 356 357 357 358 358 358 359 359 360 360 360 360 360 360 359 359 358 358 357 356 353 351 350 350 349 347 346 349 350 347 343 345 346 345 345 346 345 347 348 347 347 347 347 347 347 347 348 348 347 348 347 346 344 340 337 335 336 336 336 335 335
350 351 351 352 352 353 354 355 355 356 356 357 357 358 358 358 358 359 360 360 360 360 360 360 360 360 359 359 358 356 352 349 346 343 341 342 342 342 342 343 345 346 344 343 344 344 343 344 345 344 345 345 346 348 348 348 348 348 347 347 346 346 346 346 346 345 342 338 336 336 337 336 336 335
354 354 354 354 355 356 356 356 357 357 357 358 358 358 359 359 360 360 361 361 360 360 360 360 360 360 359 356 352 345 338 335 334 332 332 333 336 337 337 338 341 343 342 340 341 342 343 342 342 343 343 343 344 346 347 346 346 346 346 346 346 345 345 346 346 345 343 340 336 335 337 337 336 336
355 355 356 356 356 357 357 357 358 358 358 358 359 359 360 360 361 361 361 361 361 360 360 359 359 358 353 346 338 332 330 330 330 329 329 329 330 331 332 332 335 337 337 334 336 339 341 341 341 341 341 342 342 342 343 344 344 344 345 345 345 345 345 345 345 343 343 341 337 336 337 337 336 336
356 356 357 357 358 358 358 358 358 358 358 359 359 359 360 361 362 362 362 361 360 359 359 358 354 348 339 333 330 329 329 329 329 328 328 329 329 328 329 329 329 330 330 329 330 333 336 338 340 340 340 340 340 340 341 341 341 342 343 344 343 343 344 345 344 342 341 340 337 335 336 336 336 334
357 358 358 359 359 359 359 359 359 359 359 359 359 360 361 361 362 361 361 360 360 359 356 349 341 334 330 329 329 329 329 328 328 328 328 328 328 328 328 328 328 328 328 328 329 331 334 336 337 337 339 340 340 340 340 339 339 340 341 341 341 341 342 343 343 342 341 340 338 336 336 337 336 333
359 359 360 359 359 359 359 359 359 359 359 360 360 361 361 361 361 361 360 359 356 350 342 335 330 329 329 329 328 328 328 328 327 327 327 327 327 327 327 327 328 327 327 327 328 330 333 334 334 334 336 338 338 338 338 338 338 338 339 340 340 341 341 341 341 341 340 339 339 337 336 337 335 333
360 360 360 360 360 360 360 360 360 360 360 361 361 361 361 361 359 357 353 348 341 334 330 329 329 329 328 328 328 328 328 327 327 326 326 326 327 327 326 327 327 327 327 327 327 329 331 333 333 333 333 335 335 336 336 336 337 338 339 340 340 340 340 340 341 341 340 339 338 336 335 335 333 330
361 360 360 360 360 360 360 360 360 360 360 361 361 361 359 355 350 344 337 332 330 329 329 329 328 328 328 327 327 327 326 326 326 326 326 326 326 326 326 326 327 327 327 327 328 329 330 332 332 332 333 333 333 334 334 334 335 336 337 339 339 340 340 340 341 340 339 338 336 335 336 335 331 328
362 361 360 360 360 361 361 361 361 361 361 360 358 353 348 341 335 331 329 329 329 329 328 328 327 327 327 327 326 326 326 326 325 325 326 326 326 326 326 326 326 326 327 327 328 329 330 331 332 332 333 333 333 334 334 334 334 335 336 338 339 340 340 340 340 340 337 336 334 334 334 333 330 327
362 362 362 362 362 362 362 362 361 360 357 352 345 338 334 330 329 329 329 329 328 328 327 327 327 326 326 326 326 325 325 325 325 325 325 325 325 326 326 326 326 326 326 326 327 327 329 330 332 333 334 334 335 335 335 335 336 336 337 338 339 339 339 339 338 337 335 334 334 334 331 327 324 322
363 363 363 363 362 362 361 359 356 351 344 337 332 330 329 329 328 329 328 328 328 327 327 326 326 325 325 325 325 324 324 324 324 324 324 324 325 325 325 325 325 325 325 326 326 326 326 328 330 332 333 334 335 335 336 336 336 337 337 337 337 337 338 337 337 335 333 331 331 331 326 320 317 316
362 362 362 362 361 359 355 350 344 337 332 329 329 328 328 328 328 328 328 327 327 326 326 326 325 325 325 324 324 324 324 323 323 323 323 324 325 325 325 325 325 325 325 325 325 324 325 325 326 328 329 331 332 334 335 335 335 335 335 335 336 336 336 336 336 334 332 330 329 328 324 319 316 316
359 360 361 360 356 351 344 338 332 329 328 329 328 328 328 328 328 328 327 327 326 326 325 325 324 324 324 324 324 323 323 322 322 322 323 324 324 324 324 324 324 324 324 324 324 324 324 324 324 325 326 327 328 329 330 331 332 332 331 332 333 334 334 334 333 332 330 328 327 325 321 318 316 317
357 360 358 351 343 337 333 330 329 329 328 328 328 328 328 328 327 327 327 326 326 325 325 324 324 324 324 324 323 322 322 322 322 322 323 324 324 324 324 324 324 324 324 324 324 324 324 323 323 323 323 324 325 326 326 327 328 328 328 328 329 330 331 331 330 328 327 325 323 320 318 316 316 316
357 354 347 338 332 329 329 328 328 328 328 328 328 328 328 328 327 327 327 326 325 324 324 324 324 324 324 323 322 322 321 321 321 322 323 323 323 323 323 323 323 323 324 324 324 324 323 323 322 321 322 322 323 323 323 323 325 325 325 326 326 326 327 328 327 325 323 322 320 318 317 317 317 315
345 339 333 330 328 328 329 328 328 329 328 328 328 328 328 328 327 327 326 325 324 323 323 324 324 324 323 322 321 321 320 320 321 321 322 322 322 322 322 322 322 322 323 323 323 323 323 322 321 321 321 321 321 321 321 321 322 322 322 322 322 323 324 325 325 323 321 319 318 317 317 317 316 314
331 329 329 328 328 329 329 328 329 329 328 329 329 328 328 328 327 327 326 324 323 322 323 324 324 323 322 321 321 320 319 319 320 320 320 320 320 320 321 321 321 322 322 322 322 321 321 322 322 321 321 321 321 321 321 319 319 318 319 319 319 320 321 322 322 321 319 318 318 318 316 315 314 313
328 329 329 329 329 329 329 329 329 329 329 329 329 329 329 328 327 326 326 324 322 322 322 324 324 322 321 320 320 320 319 319 319 319 318 319 319 320 320 320 320 322 322 321 320 320 321 322 322 322 321 321 321 321 320 318 316 317 317 317 317 318 318 319 319 319 318 318 317 316 314 313 313 314
330 330 330 330 330 330 330 330 330 330 330 330 330 329 329 327 326 326 326 325 323 321 322 323 323 322 320 320 320 319 318 318 318 318 318 318 318 319 319 319 320 322 322 320 317 319 320 321 321 321 321 320 320 320 319 317 317 317 317 316 317 317 317 317 317 317 316 315 314 313 312 313 314 313
331 331 331 331 331 331 331 331 330 330 330 331 330 330 329 328 327 326 326 325 323 322 321 322 323 322 320 320 320 320 319 318 318 318 318 318 317 318 318 318 319 321 321 318 317 318 319 320 320 320 320 319 318 318 317 317 317 317 317 316 316 316 316 316 316 315 314 314 313 313 313 313 312 311
331 331 331 331 331 331 331 331 331 331 331 331 330 329 329 328 328 327 326 326 325 323 322 321 322 322 321 320 319 320 319 318 318 318 318 318 318 318 318 318 318 319 320 318 317 317 318 318 318 319 319 318 317 317 316 315 315 315 315 315 314 314 314 314 314 313 312 312 311 311 311 310 310 309
Wind_Speed
11 11 11 11 11 11 11 12 12 12 12 12 13 13 13 15 16 17 18 18 15 10 8 7 4 3 4 5 6 8 10 10 12 14 15 15 15 13 13 14 14 15 15 15 15 15 15 16 17 18 19 20 21 21 22 22 22 22 23 23 23 23 23 22 21 20 20 19 19 19 19 20 21 19
12 12 12 12 12 12 12 12 12 12 12 12 13 14 14 15 16 17 19 20 15 9 7 6 5 5 5 7 9 10 10 11 12 13 14 15 15 15 15 16 16 17 17 17 18 18 18 18 18 19 20 21 21 22 23 24 24 24 24 24 24 24 24 24 22 21 20 20 20 19 19 19 20 19
13 13 13 13 13 13 13 13 13 13 12 12 13 13 14 15 16 16 19 21 15 9 9 9 9 10 11 12 13 13 13 13 13 15 16 16 16 16 17 18 18 18 19 19 20 20 20 20 20 20 20 21 22 23 24 24 25 25 24 24 24 24 24 24 23 22 21 21 20 20 19 19 20 19
14 14 14 14 14 14 14 14 15 14 14 13 13 14 14 15 16 16 18 22 21 16 16 16 15 15 16 16 16 16 16 16 16 17 17 17 17 19 20 20 20 20 20 21 21 22 22 22 22 22 22 22 23 24 25 25 25 25 25 24 24 24 24 24 23 22 22 21 21 20 19 18 19 19
15 15 15 15 15 15 16 16 16 16 15 15 15 15 15 16 17 17 19 23 25 23 20 19 18 19 19 19 18 18 19 19 19 20 20 20 20 21 22 22 23 22 22 23 23 24 24 24 25 24 24 24 24 25 26 26 26 26 26 25 25 24 24 24 23 23 23 22 22 21 19 18 18 19
15 15 15 15 16 16 17 17 17 17 17 17 17 17 18 18 18 18 19 22 26 27 24 23 22 21 22 22 21 21 21 22 22 23 24 24 24 25 25 25 26 25 25 25 25 25 26 27 27 27 27 27 27 27 27 27 27 27 27 27 26 26 25 25 24 24 24 23 22 21 20 18 17 18
16 16 16 16 16 17 17 17 18 18 18 18 19 19 20 20 20 20 20 22 25 28 28 27 26 25 25 25 24 24 24 25 25 26 26 27 28 28 28 28 29 29 29 28 27 28 28 29 30 30 30 30 30 30 29 28 28 28 28 28 28 28 27 26 25 25 25 24 23 22 21 19 17 17
17 17 17 17 17 18 18 18 18 19 19 19 19 20 20 21 21 21 22 23 25 28 30 30 28 28 28 28 27 27 27 27 28 28 28 29 30 31 30 31 31 31 31 31 30 30 30 31 32 33 33 33 33 33 32 31 30 30 30 29 29 29 29 28 26 25 25 25 24 23 21 19 18 16
19 19 19 18 18 19 19 19 19 20 20 20 20 20 21 21 22 22 23 24 26 28 31 32 31 30 30 30 29 29 29 31 31 31 31 31 32 32 33 33 33 33 33 33 31 30 31 32 33 34 35 35 35 35 34 34 33 32 31 31 30 30 30 29 28 27 26 26 25 24 22 20 19 17
20 20 20 19 20 21 21 20 20 20 21 21 22 22 22 22 23 23 24 25 27 28 31 32 33 33 33 33 33 31 31 32 33 34 34 34 34 34 34 34 34 33 33 34 33 32 31 32 33 34 35 35 36 36 36 36 35 34 33 32 32 32 32 31 30 29 28 27 26 25 23 22 20 18
21 21 20 20 21 21 21 21 20 21 21 22 22 23 23 23 24 25 25 26 28 29 31 32 33 34 34 34 35 34 33 34 34 34 35 36 36 36 35 35 34 33 33 34 34 34 33 33 34 34 33 34 35 36 37 38 38 37 36 35 34 34 33 33 32 31 30 29 28 26 24 23 21 19
22 22 21 21 21 21 21 21 20 21 21 22 23 23 23 23 24 25 26 26 28 29 31 33 34 34 35 35 35 34 34 34 34 33 34 36 36 35 36 36 34 33 33 33 33 34 34 34 35 34 33 33 32 33 35 37 38 39 38 38 37 36 35 35 34 32 32 31 29 28 26 24 23 21
24 23 22 22 22 22 22 21 21 21 21 22 23 23 23 23 24 25 26 27 28 29 31 31 31 32 34 35 35 34 33 33 33 32 33 35 35 35 36 36 35 32 31 32 33 33 33 33 35 35 34 33 31 31 32 34 36 38 39 40 40 39 38 37 36 34 33 33 31 30 28 26 24 23
25 24 24 24 23 23 23 22 22 22 22 22 22 22 21 22 23 24 25 26 27 28 30 29 26 26 29 31 33 33 31 31 32 31 33 35 36 37 38 38 37 33 31 32 34 35 34 34 36 38 37 35 33 33 33 34 33 33 35 37 40 41 40 39 38 36 34 33 33 31 30 27 25 24
26 26 25 25 24 24 24 24 24 23 23 22 22 21 20 20 22 23 25 26 27 28 30 29 25 24 27 28 30 31 29 29 31 33 34 36 36 37 40 43 42 39 36 36 38 39 38 37 39 40 40 38 36 36 37 36 34 32 31 33 35 39 42 41 39 38 36 34 34 33 31 29 27 25
27 27 26 25 25 25 25 25 25 24 24 23 22 21 20 20 21 22 24 25 26 27 30 30 27 25 26 27 28 29 28 29 33 34 35 37 37 37 40 43 44 42 41 41 43 43 42 43 44 44 44 41 38 38 39 38 36 34 32 32 32 34 38 41 40 39 37 36 35 34 33 31 28 26
28 27 27 26 26 26 25 25 25 25 24 22 21 21 21 21 21 22 23 24 25 26 29 32 32 30 29 30 29 30 30 31 33 34 36 36 37 39 41 42 43 43 43 44 46 48 47 47 48 48 48 44 39 37 39 39 40 39 36 33 32 32 33 36 40 41 39 37 37 36 35 34 30 27
29 28 27 27 26 26 25 24 23 23 23 21 21 21 21 22 22 22 22 22 23 25 27 31 32 31 31 32 32 31 31 31 31 32 35 35 36 39 42 43 44 44 44 45 47 49 48 46 48 49 47 46 43 41 42 42 42 44 42 34 31 32 31 32 36 41 42 39 38 38 37 36 33 30
29 28 27 27 26 25 25 23 21 21 20 20 21 21 23 24 24 24 23 22 22 24 25 28 30 31 31 31 31 30 29 30 30 30 32 35 36 38 41 43 44 44 43 42 42 45 47 46 47 48 46 46 46 43 41 43 42 43 45 39 31 30 32 33 34 38 42 42 40 39 39 37 35 32
29 28 28 27 25 24 24 22 19 18 19 20 21 22 23 24 24 25 25 24 23 23 24 27 29 30 30 29 29 28 26 27 27 27 31 35 35 38 41 43 44 43 40 40 41 44 48 49 48 49 46 46 47 44 42 42 41 39 41 40 35 30 30 34 35 35 39 42 42 41 40 39 37 34
29 28 27 26 24 24 23 20 17 16 18 20 22 23 22 23 24 24 23 24 25 25 26 28 28 28 28 27 27 26 24 24 24 27 33 34 33 37 42 43 45 43 40 40 41 44 49 49 48 51 51 48 47 46 44 43 42 40 38 37 36 33 28 31 35 35 36 41 43 42 41 40 39 36
28 27 26 24 23 23 21 18 16 16 17 20 22 22 21 23 25 24 22 23 24 24 25 27 28 28 27 27 27 26 25 24 24 27 33 33 32 36 41 42 43 45 43 41 39 42 48 48 48 52 53 52 52 50 47 43 42 41 40 36 34 34 31 29 31 34 36 38 42 43 43 41 40 39
26 26 24 22 21 20 18 16 15 15 16 20 21 20 21 24 25 23 22 22 22 22 23 25 26 27 28 28 29 29 28 27 26 28 30 29 28 32 36 37 39 43 46 43 39 41 47 47 48 49 49 52 55 53 49 46 43 42 42 40 36 35 34 31 29 31 35 38 40 43 45 44 43 42
23 22 21 19 18 17 15 14 14 14 16 19 20 19 20 23 23 21 21 22 22 23 25 25 25 26 27 28 29 31 31 30 28 28 28 27 27 29 33 35 36 41 45 44 41 42 45 45 47 48 48 50 54 54 52 50 48 44 42 41 40 38 35 32 31 31 34 38 40 43 46 47 46 45
20 20 18 16 15 14 14 14 14 15 17 19 20 20 20 20 20 20 22 23 23 24 25 25 26 27 27 28 29 31 32 28 26 27 29 29 29 30 33 35 36 39 43 42 40 42 44 43 45 47 47 49 52 52 50 47 47 47 46 44 42 41 39 36 34 32 33 37 40 43 47 49 49 47
19 18 15 14 13 13 14 15 15 16 17 19 20 20 18 18 18 20 22 23 23 23 24 25 26 27 28 30 32 33 33 30 29 31 32 31 31 31 33 35 35 37 39 40 39 40 42 43 44 46 47 48 50 50 47 46 47 49 48 46 44 42 41 39 36 33 32 36 41 44 47 51 50 48
16 15 14 14 14 14 15 16 16 17 18 19 19 19 18 18 19 20 22 22 22 23 24 25 27 28 30 32 32 32 32 32 32 33 33 33 33 34 34 36 36 37 38 39 38 37 38 41 42 44 46 47 49 50 49 48 47 45 45 47 48 46 43 39 38 36 34 36 40 44 48 51 51 50
14 14 14 15 15 15 16 17 17 17 18 18 18 18 18 19 20 21 22 21 22 23 24 26 28 29 29 29 30 31 32 32 31 31 31 31 33 34 35 37 39 40 41 41 39 35 34 36 38 40 42 44 45 47 47 46 44 42 42 43 43 43 40 38 39 39 36 36 39 44 50 53 53 53
15 16 15 15 16 16 17 18 18 18 18 18 19 19 19 18 19 20 20 20 22 24 26 26 27 27 27 27 28 29 29 29 29 30 31 32 34 35 37 38 40 41 41 41 40 36 32 32 34 35 36 38 40 42 43 44 44 42 40 38 37 37 37 38 40 40 38 39 40 45 53 57 58 58
17 18 17 17 17 18 18 19 19 19 19 19 19 18 17 16 16 17 18 20 22 23 23 23 23 24 25 25 26 26 27 28 29 31 33 34 35 35 37 39 40 40 39 38 38 34 30 31 33 32 32 34 37 39 40 42 42 41 40 41 40 38 38 40 41 41 41 42 42 45 53 59 60 59
19 18 18 18 18 19 19 20 20 20 19 19 18 16 14 14 15 16 18 19 20 20 20 21 21 22 22 23 24 25 27 29 30 31 32 33 33 33 34 36 38 39 37 36 35 31 28 28 31 32 32 33 35 36 36 38 39 39 39 41 40 38 40 42 42 43 44 45 45 47 53 59 61 58
19 19 19 19 19 20 20 21 21 21 21 19 16 13 12 13 15 15 15 16 16 17 18 19 20 20 21 22 24 26 28 29 29 29 29 30 30 31 32 35 38 39 39 38 37 33 28 27 28 29 30 31 32 33 34 35 36 35 36 38 38 39 42 43 45 46 45 46 47 49 54 60 62 59
19 20 20 20 20 21 22 22 21 19 16 14 12 11 11 12 12 12 12 13 15 16 16 17 18 19 20 22 24 26 27 27 27 27 27 28 29 31 34 36 38 39 39 39 37 34 29 26 25 26 26 27 28 29 30 32 32 30 30 33 36 39 42 43 44 45 44 46 48 49 54 62 64 62
21 20 20 21 20 19 17 15 13 11 10 10 10 9 9 9 10 10 11 12 13 14 14 15 17 18 20 22 23 23 24 25 25 25 26 28 31 33 34 36 36 36 37 36 36 35 32 28 24 24 24 25 25 24 25 27 28 26 25 27 30 33 36 38 39 40 41 44 48 51 56 60 61 61
21 20 19 18 14 11 10 9 9 9 8 8 8 7 7 8 9 10 11 11 12 12 13 14 16 18 19 19 20 21 22 24 24 25 27 29 30 31 32 33 34 34 34 34 34 34 35 32 28 26 24 24 24 23 22 24 26 26 25 25 25 26 27 29 32 35 37 41 46 51 53 52 52 54
20 18 15 12 10 9 8 8 7 7 7 7 7 7 7 8 9 9 10 11 11 11 12 14 15 16 16 17 18 20 21 23 24 26 26 27 27 28 29 31 32 33 33 33 34 34 33 31 29 28 27 25 25 24 23 23 25 27 27 27 27 25 24 25 29 32 35 40 46 52 52 51 52 53
15 13 11 10 10 10 8 8 7 7 8 7 7 7 7 7 8 9 9 10 10 11 13 14 14 14 14 15 17 19 20 22 23 24 24 25 26 27 29 30 31 32 33 33 33 34 33 31 30 29 28 27 26 26 24 23 24 25 25 25 25 24 23 23 24 27 32 38 44 48 49 50 53 52
11 10 11 11 11 10 9 9 8 8 7 6 6 7 7 8 8 8 8 9 10 11 12 13 12 12 13 15 17 18 19 20 20 21 23 24 25 26 28 31 31 32 33 33 32 33 33 33 32 31 28 27 26 26 27 26 25 25 23 20 19 21 21 20 21 26 30 35 39 41 42 45 48 45
10 11 11 11 11 10 9 9 8 7 6 6 7 7 8 8 8 8 8 9 9 10 11 11 10 10 12 14 15 17 18 18 18 19 21 22 24 25 27 29 30 31 33 34 33 34 33 32 31 32 30 26 23 22 23 24 24 23 20 15 12 14 17 17 20 25 29 32 35 37 39 41 41 37
11 11 12 11 11 9 8 7 6 6 6 7 7 7 7 8 8 8 8 9 9 10 10 9 9 9 11 13 13 15 17 17 17 19 20 21 23 24 25 27 30 31 33 32 32 33 32 29 28 29 28 24 20 18 17 18 18 18 16 13 9 8 11 13 18 24 29 32 35 38 40 40 39 35
11 11 11 10 9 8 7 6 6 6 7 7 7 7 7 8 8 8 8 9 9 9 8 8 8 8 9 10 11 13 15 16 17 19 20 22 23 24 25 28 28 27 27 28 29 30 28 25 24 25 24 21 18 16 14 14 14 14 14 13 10 4 5 10 16 22 27 31 35 38 39 39 36 34
11 10 10 9 8 7 7 6 6 7 7 7 7 7 7 8 8 8 8 8 8 8 7 7 7 7 8 9 10 12 14 16 17 19 21 22 23 24 25 27 25 20 19 23 26 26 25 24 22 22 22 21 19 16 12 11 12 12 11 10 8 5 8 12 17 22 27 31 33 35 36 36 34 33
11 10 9 9 8 7 7 7 7 7 7 7 7 7 8 8 8 8 8 7 7 8 7 7 6 7 7 7 8 10 12 14 16 18 20 22 22 23 24 26 22 16 15 21 24 22 20 21 22 22 21 20 18 15 13 12 12 13 13 13 12 12 14 17 20 23 26 27 27 29 31 32 33 33
10 9 8 8 7 7 7 7 7 7 7 8 7 7 8 8 9 8 8 7 7 7 7 7 6 6 7 7 7 8 9 11 13 15 18 20 22 22 22 22 20 16 16 20 21 19 16 16 18 18 17 15 14 13 14 15 16 18 19 18 18 19 20 21 22 24 25 26 26 26 26 26 26 27
8 7 7 6 6 6 6 7 7 7 8 8 8 8 8 9 9 9 9 8 7 7 7 7 7 7 7 8 9 8 8 9 11 12 14 16 18 19 19 19 18 16 16 17 17 16 14 13 13 13 12 12 12 13 14 16 18 19 20 20 22 23 23 23 24 26 26 25 24 23 23 22 23 23
Wind_Direction
270 270 271 270 269 268 266 266 267 267 269 270 272 275 279 283 287 291 295 297 300 301 297 290 275 252 256 267 269 267 268 270 269 269 271 276 279 280 277 275 274 275 276 278 278 278 278 276 274 273 271 270 269 270 270 271 272 272 274 275 277 279 282 285 288 291 295 300 306 312 316 323 330 327
272 273 274 275 275 274 273 272 270 269 270 271 271 273 274 275 278 281 287 293 299 299 291 283 271 266 269 275 276 274 275 277 276 277 278 280 284 285 281 278 278 279 280 281 281 281 280 279 277 276 275 273 272 271 271 271 271 272 272 273 274 276 278 280 283 286 290 295 301 307 312 318 327 327
271 273 275 277 277 278 278 277 275 274 273 272 273 273 273 274 275 276 279 285 290 292 288 284 278 279 282 283 283 283 283 285 285 287 289 290 291 288 284 283 283 284 284 285 285 284 283 282 280 278 276 275 274 273 272 272 271 271 271 271 272 273 275 277 280 282 285 290 295 302 307 313 323 326
269 271 273 275 278 279 279 278 278 279 277 276 275 274 274 274 275 276 274 278 286 293 293 291 289 289 289 288 288 289 290 290 289 290 291 291 290 287 285 285 285 285 285 285 285 284 284 282 281 279 277 276 274 273 272 271 271 271 270 270 270 271 273 275 277 279 281 285 290 297 302 308 319 325
266 269 271 274 276 277 278 278 278 278 279 278 277 276 276 275 275 275 273 277 286 294 295 294 294 293 292 290 289 290 291 291 290 289 287 286 286 285 285 285 284 283 283 283 283 283 283 282 281 279 277 275 274 273 272 271 271 270 270 270 270 271 272 273 275 277 278 281 285 291 296 302 313 322
264 267 270 273 275 276 276 276 277 277 277 278 278 278 277 277 277 276 276 276 282 289 294 295 295 294 293 291 291 292 291 290 289 287 285 285 285 284 285 285 285 284 283 283 283 282 282 281 279 278 276 274 273 272 272 271 271 271 270 270 270 270 270 272 273 274 275 277 281 286 291 296 306 318
263 265 268 271 274 275 276 275 276 276 276 276 277 278 278 279 280 280 280 279 280 287 292 294 295 296 296 295 295 294 292 291 290 288 287 287 286 285 286 286 285 284 284 285 285 284 283 281 279 277 275 274 273 272 271 271 271 271 270 270 270 270 269 269 270 271 272 273 277 281 285 290 298 312
261 264 267 270 273 275 276 275 275 276 277 277 278 279 279 281 282 283 283 283 283 286 289 292 294 295 296 295 295 296 295 294 292 290 289 288 288 288 289 289 287 286 287 288 288 287 286 283 281 279 276 274 273 273 272 271 271 270 270 270 270 270 269 268 268 268 269 270 273 278 281 284 290 303
259 262 266 269 273 275 275 275 276 277 279 280 280 280 280 282 283 284 284 284 285 286 288 291 293 294 294 293 294 295 295 295 294 293 292 291 291 292 293 294 293 292 293 293 292 291 288 285 283 281 279 277 275 274 273 272 271 270 270 269 269 269 269 267 266 265 266 267 270 273 276 279 284 293
257 260 263 267 271 273 275 276 277 278 279 280 280 280 281 282 283 284 284 285 285 286 287 289 291 291 292 293 293 293 293 294 294 294 295 296 295 296 297 297 296 296 296 295 295 293 290 286 283 281 280 279 277 275 273 272 271 269 268 268 268 268 267 266 265 264 263 265 267 269 272 274 278 285
258 260 262 266 269 272 274 276 278 279 280 280 280 280 281 282 283 284 285 286 287 287 288 288 288 289 290 291 292 293 294 294 294 297 299 299 298 298 298 298 297 297 296 295 294 293 290 287 285 283 281 280 278 275 273 272 270 268 268 267 266 267 267 265 264 263 262 262 264 266 267 270 273 278
259 261 263 266 269 271 273 275 277 279 280 281 280 280 282 283 285 286 287 288 290 290 291 291 290 290 290 289 289 292 294 295 297 301 302 301 300 301 301 300 300 299 298 296 294 292 290 287 284 283 280 278 277 276 273 271 268 266 266 266 266 265 265 264 263 261 260 260 261 263 264 266 268 272
260 262 264 267 269 271 273 275 276 276 278 279 279 280 283 285 286 286 287 289 290 291 292 292 291 291 290 290 293 297 299 301 304 306 306 305 306 306 304 301 300 299 299 297 294 292 291 288 285 283 281 278 276 275 274 273 270 266 264 264 265 265 264 262 262 260 259 259 259 260 261 262 263 267
260 262 265 267 269 271 273 275 276 277 276 276 276 278 282 284 285 286 285 286 288 290 290 289 288 288 288 291 297 302 305 308 309 309 309 309 309 309 306 303 301 299 299 300 298 293 292 290 288 287 286 284 281 277 275 274 272 271 268 266 265 265 264 262 261 259 258 257 258 258 258 259 260 263
260 262 264 266 268 270 271 273 276 276 275 275 275 276 278 281 282 283 285 287 288 290 291 290 288 286 288 293 300 305 309 311 311 310 310 309 309 309 306 305 305 304 304 306 302 295 292 292 290 288 287 288 288 284 279 275 273 272 270 267 263 261 262 262 260 259 257 256 256 256 255 255 256 259
260 262 264 267 268 269 270 274 276 275 273 273 273 275 276 276 275 277 281 285 287 289 290 290 287 287 290 295 301 308 312 312 310 309 307 307 308 306 304 303 304 305 305 305 301 298 297 296 294 291 290 292 292 287 283 280 278 272 265 261 260 259 259 259 258 257 256 255 255 253 252 252 251 254
260 262 265 267 268 269 271 273 275 275 275 275 274 273 273 272 272 274 278 282 285 286 288 289 289 291 295 296 300 309 312 310 308 306 304 304 304 302 301 301 302 302 302 300 298 297 298 298 297 296 294 295 295 290 287 288 287 282 273 263 259 260 259 258 256 254 253 253 252 250 249 248 247 249
260 262 265 267 268 270 272 272 273 274 276 278 278 278 277 275 274 275 276 279 281 283 287 289 291 295 298 299 303 308 309 308 306 304 303 302 301 300 299 299 299 299 299 300 297 294 296 300 299 297 297 298 298 295 294 294 294 292 287 276 261 258 259 259 255 251 249 249 249 248 245 244 244 246
261 264 266 268 269 271 272 272 272 271 273 277 280 281 283 284 285 284 282 279 278 282 287 289 292 297 301 303 305 307 308 307 307 307 304 302 299 298 298 299 299 298 300 302 296 292 298 303 299 298 301 301 299 298 298 299 299 297 295 289 275 261 256 256 254 249 247 246 246 246 243 240 241 242
262 264 266 268 269 270 271 270 268 267 270 273 276 279 282 286 290 291 290 286 284 283 284 286 292 297 300 302 303 305 305 305 307 307 301 298 297 297 296 297 299 300 300 301 295 291 297 302 300 301 304 301 298 299 298 298 301 300 298 294 289 278 261 252 249 247 245 244 244 243 240 237 238 239
260 262 264 266 267 267 268 268 265 263 265 267 272 277 282 286 289 289 289 290 290 287 286 289 293 297 299 301 302 304 303 304 307 303 297 297 300 299 295 295 298 299 298 298 295 290 294 299 299 300 302 300 297 297 297 299 301 301 299 297 294 290 278 258 248 245 243 241 241 240 237 235 235 235
257 258 259 261 263 263 264 263 259 257 260 262 267 274 282 286 286 286 288 291 292 291 293 297 301 302 304 305 304 304 304 305 302 295 292 296 298 294 292 293 296 297 296 299 297 290 291 297 298 298 300 299 296 296 296 296 297 297 297 297 294 292 289 275 256 246 242 239 238 236 234 233 232 231
254 255 255 255 256 258 258 255 251 251 255 260 265 273 281 284 284 287 291 291 291 293 295 298 302 304 305 306 307 309 310 309 305 298 295 297 294 290 291 293 293 292 295 300 300 293 293 297 297 295 295 294 295 296 296 295 295 294 294 292 290 290 291 286 274 258 245 239 236 233 231 229 228 227
252 252 251 249 249 251 250 247 244 244 250 257 264 269 275 281 285 288 291 291 292 294 295 297 299 302 305 309 311 313 314 313 311 309 306 304 300 295 294 294 290 287 291 298 299 296 297 297 296 294 293 291 291 292 293 292 290 289 289 287 287 288 288 284 282 272 253 240 235 231 228 227 227 226
249 249 249 246 243 241 239 239 238 240 245 253 260 266 271 279 285 288 289 291 293 294 297 300 303 306 309 312 312 312 313 313 313 314 314 311 308 304 301 299 294 290 293 298 298 297 297 295 293 293 292 290 287 286 286 285 282 283 285 285 285 286 283 279 278 274 260 245 235 230 227 226 226 225
247 248 247 244 237 234 234 235 236 238 243 249 256 264 272 279 284 287 290 293 295 297 300 304 307 309 311 311 312 314 317 318 318 318 318 313 309 305 303 301 297 293 296 300 298 294 293 291 290 289 288 288 287 285 283 283 282 281 280 280 282 284 282 277 273 270 263 248 235 228 226 225 224 225
246 245 243 239 235 234 235 236 236 239 243 249 256 263 271 279 285 288 288 291 295 299 303 305 306 308 310 312 315 318 320 319 318 319 318 315 311 309 308 306 303 299 300 303 300 294 290 289 288 286 285 286 286 286 285 285 284 282 279 279 280 280 278 276 272 266 260 251 237 228 224 224 223 223
242 241 239 236 233 234 236 238 240 242 245 251 258 264 269 276 283 286 288 292 297 300 303 304 305 308 312 315 317 317 317 317 318 318 318 315 314 314 313 311 309 306 307 310 307 299 292 288 286 285 285 285 284 284 285 285 285 285 283 279 274 271 271 274 272 265 255 248 239 228 222 220 219 218
236 237 237 236 235 235 237 239 241 244 248 252 256 260 266 272 279 285 290 295 298 299 301 303 306 310 313 314 314 314 315 316 318 318 317 316 317 318 317 314 312 312 314 316 313 307 299 292 290 288 285 283 283 284 284 285 285 284 282 279 276 274 276 276 274 267 254 246 239 230 223 219 216 214
232 234 236 237 238 238 240 243 245 247 250 253 256 259 266 273 278 282 286 289 291 294 298 302 306 309 310 311 312 314 315 318 320 322 322 322 322 322 319 317 316 318 320 320 316 310 301 295 296 295 288 283 283 284 285 286 286 285 284 282 281 279 278 276 272 265 254 247 243 234 225 220 216 214
232 235 236 239 243 246 247 248 250 252 255 257 259 260 264 271 276 279 281 284 289 294 299 303 305 307 308 311 315 317 320 324 327 328 327 325 325 324 323 323 325 328 330 329 324 317 307 300 301 301 297 291 287 286 287 287 288 289 287 284 281 280 281 278 272 264 257 250 243 234 224 216 213 212
230 235 239 243 246 248 250 252 256 260 262 262 260 260 264 270 276 280 283 289 295 299 302 304 305 308 311 316 321 324 326 329 331 331 330 328 330 333 335 336 337 337 337 337 335 330 321 311 306 303 299 295 292 291 291 290 289 290 288 286 284 282 280 277 272 267 258 245 236 230 223 215 211 210
228 234 238 241 244 247 251 256 260 262 263 260 258 262 270 275 280 285 290 294 297 299 301 304 306 311 317 323 326 327 329 332 334 334 335 337 340 343 343 343 343 342 341 340 339 336 329 320 313 308 304 300 297 297 297 295 295 295 293 290 287 283 279 275 271 266 254 238 229 225 220 213 210 208
225 230 233 237 242 248 251 252 254 255 254 256 260 267 274 280 286 291 294 295 297 298 301 305 311 318 324 327 329 330 333 335 336 337 340 343 345 346 347 347 347 348 348 347 346 343 338 333 324 313 307 304 302 302 302 300 301 303 302 297 293 288 282 273 265 258 248 237 229 221 212 206 204 203
223 225 229 232 235 239 239 238 242 248 251 255 261 268 275 283 288 290 292 294 296 300 306 312 319 325 328 329 332 336 337 337 338 341 345 348 349 350 351 351 353 355 356 355 353 350 347 343 338 329 321 314 310 309 307 304 304 307 307 304 300 295 288 278 266 254 241 230 222 214 204 197 195 194
218 217 220 223 220 217 226 234 239 244 244 246 255 265 275 283 288 290 292 295 300 307 313 318 323 327 330 333 338 341 341 342 346 351 354 355 356 357 357 357 359 3 4 359 356 355 354 352 350 347 342 335 329 322 316 310 309 310 309 307 304 300 295 288 275 256 238 227 219 210 201 194 191 188
207 202 202 209 210 210 219 223 221 227 235 243 257 269 275 279 281 285 290 297 305 311 315 320 325 328 332 338 343 346 347 351 356 360 1 3 4 3 2 4 6 8 7 3 0 1 1 1 1 358 353 349 346 340 332 325 320 317 314 311 306 301 296 286 268 246 229 220 213 206 199 191 185 182
195 196 198 204 204 200 203 207 210 221 233 245 261 270 271 272 274 280 290 299 306 310 314 320 325 329 335 343 347 350 353 358 4 8 9 10 10 8 8 10 11 9 8 8 7 6 3 1 2 2 0 355 350 346 342 338 333 329 325 319 308 300 293 276 250 227 214 207 201 196 190 182 176 174
197 199 198 199 196 192 197 204 212 226 239 249 258 261 262 266 273 282 292 299 304 309 314 321 327 332 341 348 351 354 358 3 10 15 15 14 14 13 12 13 13 11 10 11 12 10 6 360 357 359 1 357 352 347 342 337 335 334 334 332 318 302 291 266 232 208 195 191 188 181 176 173 170 167
190 188 187 190 191 193 199 207 218 234 245 250 252 253 256 263 272 283 292 298 304 309 315 322 329 336 345 351 355 0 5 10 18 21 21 20 18 16 16 15 15 14 13 12 12 10 6 359 354 355 357 355 353 350 341 336 341 349 357 9 11 330 293 262 227 201 183 176 173 169 166 166 164 162
175 177 180 185 191 198 205 212 224 235 241 244 245 247 251 259 268 277 285 293 302 310 316 321 325 333 344 351 359 8 13 19 25 26 26 24 21 20 19 17 16 14 12 11 11 9 6 1 356 354 356 355 352 347 345 354 10 19 22 29 34 12 242 220 207 191 175 166 164 162 160 159 159 161
172 178 182 186 192 198 204 212 223 231 234 237 239 240 246 253 260 268 278 291 303 309 311 313 318 329 341 351 4 14 18 24 30 31 29 27 23 22 21 17 15 11 9 10 11 9 9 12 11 6 6 8 5 5 14 32 42 43 44 53 67 104 154 168 171 166 160 159 159 156 152 153 158 163
180 186 190 193 196 200 206 215 225 231 233 237 239 240 243 245 250 258 270 285 302 308 305 303 310 324 336 346 3 15 19 24 30 31 29 27 26 25 22 18 16 12 8 12 15 12 12 21 26 25 25 24 21 26 42 56 61 63 69 79 92 107 124 137 143 144 143 145 146 145 146 152 160 161
185 190 194 198 202 208 215 222 230 235 239 241 241 244 245 244 243 250 261 275 292 302 303 301 303 312 324 333 346 360 11 19 25 28 28 27 26 26 23 19 18 16 11 14 18 17 16 24 32 36 41 44 48 58 70 77 81 85 89 93 97 104 113 123 128 130 131 135 138 142 146 153 158 157
183 190 195 200 206 212 219 226 231 236 240 242 241 244 247 246 244 246 253 265 280 295 306 308 305 303 310 318 325 334 348 3 11 18 25 26 24 23 21 19 19 19 15 14 19 23 25 28 32 38 47 57 67 77 86 91 96 101 107 110 111 114 120 128 133 136 137 137 137 139 143 147 150 150